Time,TemperatureF,DewpointF,PressureIn,WindDirection,WindDirectionDegrees,WindSpeedMPH,WindSpeedGustMPH,Humidity,HourlyPrecipIn,Conditions,Clouds,dailyrainin,SoftwareType,DateUTC
2013-02-23 00:08:00,43.5,30.0,29.99,WNW,295,1.0,4.0,59,0.00,,,0.00,weatherlink.com 1.10,2013-02-23 06:08:00,
2013-02-23 00:23:00,42.9,30.0,30.00,SSE,160,0.0,2.0,60,0.00,,,0.00,weatherlink.com 1.10,2013-02-23 06:23:00,
2013-02-23 00:38:00,42.8,30.0,29.99,NNE,30,1.0,5.0,61,0.00,,,0.00,weatherlink.com 1.10,2013-02-23 06:38:00,
2013-02-23 00:53:00,42.4,30.0,29.99,NNE,13,0.0,5.0,62,0.00,,,0.00,weatherlink.com 1.10,2013-02-23 06:53:00,
2013-02-23 01:08:00,42.4,30.0,29.99,NNW,327,1.0,8.0,62,0.00,,,0.00,weatherlink.com 1.10,2013-02-23 07:08:00,
2013-02-23 01:24:00,42.3,30.0,29.99,NNE,25,6.0,9.0,62,0.00,,,0.00,weatherlink.com 1.10,2013-02-23 07:24:00,
2013-02-23 01:39:00,42.0,29.0,30.00,NNE,30,0.0,7.0,61,0.00,,,0.00,weatherlink.com 1.10,2013-02-23 07:39:00,
2013-02-23 01:54:00,41.6,29.0,30.01,South,191,1.0,4.0,61,0.00,,,0.00,weatherlink.com 1.10,2013-02-23 07:54:00,
2013-02-23 02:09:00,41.1,29.0,30.00,North,356,0.0,4.0,62,0.00,,,0.00,weatherlink.com 1.10,2013-02-23 08:09:00,
2013-02-23 02:24:00,40.5,29.0,30.00,NNE,23,1.0,3.0,63,0.00,,,0.00,weatherlink.com 1.10,2013-02-23 08:24:00,
2013-02-23 02:39:00,40.2,28.0,29.99,West,270,0.0,1.0,63,0.00,,,0.00,weatherlink.com 1.10,2013-02-23 08:39:00,
2013-02-23 02:54:00,39.9,28.0,29.99,NW,314,1.0,3.0,63,0.00,,,0.00,weatherlink.com 1.10,2013-02-23 08:54:00,
2013-02-23 03:09:00,39.9,28.0,29.99,NE,43,0.0,3.0,63,0.00,,,0.00,weatherlink.com 1.10,2013-02-23 09:09:00,
2013-02-23 03:24:00,39.4,28.0,29.99,NE,42,0.0,1.0,64,0.00,,,0.00,weatherlink.com 1.10,2013-02-23 09:24:00,
2013-02-23 03:39:00,38.9,28.0,29.99,NW,313,0.0,2.0,65,0.00,,,0.00,weatherlink.com 1.10,2013-02-23 09:39:00,
2013-02-23 03:54:00,38.1,28.0,29.99,West,278,0.0,2.0,67,0.00,,,0.00,weatherlink.com 1.10,2013-02-23 09:54:00,
2013-02-23 04:09:00,37.3,28.0,30.00,South,189,0.0,2.0,69,0.00,,,0.00,weatherlink.com 1.10,2013-02-23 10:09:00,
2013-02-23 04:24:00,36.4,28.0,30.00,WNW,292,0.0,2.0,72,0.00,,,0.00,weatherlink.com 1.10,2013-02-23 10:24:00,
2013-02-23 04:39:00,36.4,28.0,30.00,WNW,301,0.0,2.0,72,0.00,,,0.00,weatherlink.com 1.10,2013-02-23 10:39:00,
2013-02-23 04:54:00,36.1,28.0,29.99,WNW,301,0.0,1.0,73,0.00,,,0.00,weatherlink.com 1.10,2013-02-23 10:54:00,
2013-02-23 05:09:00,35.0,28.0,30.00,WNW,301,0.0,1.0,74,0.00,,,0.00,weatherlink.com 1.10,2013-02-23 11:09:00,
2013-02-23 05:24:00,34.2,27.0,30.00,WNW,301,0.0,2.0,76,0.00,,,0.00,weatherlink.com 1.10,2013-02-23 11:24:00,
2013-02-23 05:39:00,33.6,27.0,30.00,WNW,301,0.0,0.0,77,0.00,,,0.00,weatherlink.com 1.10,2013-02-23 11:39:00,
2013-02-23 05:54:00,32.9,27.0,29.99,WNW,295,0.0,1.0,79,0.00,,,0.00,weatherlink.com 1.10,2013-02-23 11:54:00,
2013-02-23 06:09:00,32.3,27.0,29.99,WNW,301,0.0,1.0,80,0.00,,,0.00,weatherlink.com 1.10,2013-02-23 12:09:00,
2013-02-23 06:24:00,31.9,26.0,30.00,WNW,302,1.0,2.0,80,0.00,,,0.00,weatherlink.com 1.10,2013-02-23 12:24:00,
2013-02-23 06:39:00,32.1,27.0,30.00,SSW,194,0.0,3.0,80,0.00,,,0.00,weatherlink.com 1.10,2013-02-23 12:39:00,
2013-02-23 06:54:00,31.3,26.0,30.01,SSW,194,0.0,1.0,81,0.00,,,0.00,weatherlink.com 1.10,2013-02-23 12:54:00,
2013-02-23 07:09:00,30.4,26.0,30.01,SSW,194,0.0,0.0,83,0.00,,,0.00,weatherlink.com 1.10,2013-02-23 13:09:00,
2013-02-23 07:24:00,30.0,25.0,30.01,SSW,195,0.0,0.0,83,0.00,,,0.00,weatherlink.com 1.10,2013-02-23 13:24:00,
2013-02-23 07:39:00,30.6,27.0,30.02,WNW,294,3.0,3.0,85,0.00,,,0.00,weatherlink.com 1.10,2013-02-23 13:39:00,
2013-02-23 07:55:00,31.6,27.0,30.02,SSW,212,0.0,1.0,83,0.00,,,0.00,weatherlink.com 1.10,2013-02-23 13:55:00,
2013-02-23 08:10:00,35.3,29.0,30.03,West,276,0.0,1.0,78,0.00,,,0.00,weatherlink.com 1.10,2013-02-23 14:10:00,
2013-02-23 08:25:00,39.7,29.0,30.04,WNW,297,2.0,4.0,66,0.00,,,0.00,weatherlink.com 1.10,2013-02-23 14:25:00,
2013-02-23 08:40:00,42.4,30.0,30.05,WNW,297,2.0,5.0,61,0.00,,,0.00,weatherlink.com 1.10,2013-02-23 14:40:00,
2013-02-23 08:55:00,44.2,29.0,30.05,ENE,58,0.0,5.0,56,0.00,,,0.00,weatherlink.com 1.10,2013-02-23 14:55:00,
2013-02-23 09:10:00,45.2,30.0,30.05,NE,36,2.0,4.0,55,0.00,,,0.00,weatherlink.com 1.10,2013-02-23 15:10:00,
2013-02-23 09:25:00,49.3,33.0,30.05,NNE,30,0.0,2.0,53,0.00,,,0.00,weatherlink.com 1.10,2013-02-23 15:25:00,
2013-02-23 09:40:00,51.8,33.0,30.05,NE,48,3.0,3.0,49,0.00,,,0.00,weatherlink.com 1.10,2013-02-23 15:40:00,
2013-02-23 09:55:00,53.6,34.0,30.05,SW,227,1.0,2.0,47,0.00,,,0.00,weatherlink.com 1.10,2013-02-23 15:55:00,
2013-02-23 10:10:00,56.4,35.0,30.05,WSW,237,0.0,4.0,45,0.00,,,0.00,weatherlink.com 1.10,2013-02-23 16:10:00,
2013-02-23 10:25:00,58.4,35.0,30.04,WSW,250,0.0,3.0,42,0.00,,,0.00,weatherlink.com 1.10,2013-02-23 16:25:00,
2013-02-23 10:40:00,59.6,35.0,30.03,NNE,24,2.0,3.0,40,0.00,,,0.00,weatherlink.com 1.10,2013-02-23 16:40:00,
2013-02-23 10:55:00,59.6,37.0,30.03,SW,232,1.0,6.0,44,0.00,,,0.00,weatherlink.com 1.10,2013-02-23 16:55:00,
2013-02-23 11:10:00,62.0,36.0,30.02,NNW,331,2.0,7.0,38,0.00,,,0.00,weatherlink.com 1.10,2013-02-23 17:10:00,
2013-02-23 11:25:00,63.9,38.0,30.01,WSW,242,0.0,7.0,38,0.00,,,0.00,weatherlink.com 1.10,2013-02-23 17:25:00,
2013-02-23 11:40:00,65.8,38.0,30.01,SW,229,2.0,7.0,36,0.00,,,0.00,weatherlink.com 1.10,2013-02-23 17:40:00,
2013-02-23 11:55:00,65.8,34.0,30.00,SW,231,2.0,12.0,31,0.00,,,0.00,weatherlink.com 1.10,2013-02-23 17:55:00,
2013-02-23 12:10:00,66.6,35.0,29.99,WSW,240,1.0,10.0,31,0.00,,,0.00,weatherlink.com 1.10,2013-02-23 18:10:00,
2013-02-23 12:25:00,67.4,35.0,29.98,NNW,340,4.0,11.0,30,0.00,,,0.00,weatherlink.com 1.10,2013-02-23 18:25:00,
2013-02-23 12:40:00,67.8,34.0,29.97,WSW,252,5.0,13.0,29,0.00,,,0.00,weatherlink.com 1.10,2013-02-23 18:40:00,
2013-02-23 12:55:00,68.5,32.0,29.95,NNW,329,8.0,15.0,26,0.00,,,0.00,weatherlink.com 1.10,2013-02-23 18:55:00,
2013-02-23 13:10:00,68.6,30.0,29.95,WNW,287,6.0,17.0,24,0.00,,,0.00,weatherlink.com 1.10,2013-02-23 19:10:00,
2013-02-23 13:25:00,67.8,32.0,29.94,WNW,291,4.0,14.0,26,0.00,,,0.00,weatherlink.com 1.10,2013-02-23 19:25:00,
2013-02-23 13:40:00,69.3,31.0,29.94,West,269,2.0,16.0,24,0.00,,,0.00,weatherlink.com 1.10,2013-02-23 19:40:00,
2013-02-23 13:55:00,69.0,28.0,29.93,WNW,291,5.0,15.0,22,0.00,,,0.00,weatherlink.com 1.10,2013-02-23 19:55:00,
2013-02-23 14:11:00,70.0,28.0,29.91,WSW,243,1.0,15.0,21,0.00,,,0.00,weatherlink.com 1.10,2013-02-23 20:11:00,
2013-02-23 14:26:00,71.1,28.0,29.91,West,270,1.0,7.0,20,0.00,,,0.00,weatherlink.com 1.10,2013-02-23 20:26:00,
2013-02-23 14:41:00,71.1,28.0,29.90,WSW,250,1.0,12.0,20,0.00,,,0.00,weatherlink.com 1.10,2013-02-23 20:41:00,
2013-02-23 14:56:00,70.4,25.0,29.89,NW,314,2.0,13.0,18,0.00,,,0.00,weatherlink.com 1.10,2013-02-23 20:56:00,
2013-02-23 15:11:00,71.4,24.0,29.88,WNW,293,6.0,11.0,17,0.00,,,0.00,weatherlink.com 1.10,2013-02-23 21:11:00,
2013-02-23 15:26:00,70.6,26.0,29.88,NW,309,5.0,12.0,19,0.00,,,0.00,weatherlink.com 1.10,2013-02-23 21:26:00,
2013-02-23 15:41:00,70.1,23.0,29.87,NW,315,5.0,12.0,17,0.00,,,0.00,weatherlink.com 1.10,2013-02-23 21:41:00,
2013-02-23 15:56:00,71.0,24.0,29.87,NW,304,6.0,7.0,17,0.00,,,0.00,weatherlink.com 1.10,2013-02-23 21:56:00,
2013-02-23 16:11:00,71.4,24.0,29.86,WNW,294,3.0,10.0,17,0.00,,,0.00,weatherlink.com 1.10,2013-02-23 22:11:00,
2013-02-23 16:26:00,70.7,24.0,29.86,SW,233,4.0,11.0,17,0.00,,,0.00,weatherlink.com 1.10,2013-02-23 22:26:00,
2013-02-23 16:41:00,70.3,23.0,29.86,NW,308,6.0,8.0,17,0.00,,,0.00,weatherlink.com 1.10,2013-02-23 22:41:00,
2013-02-23 16:56:00,70.2,23.0,29.85,East,92,2.0,5.0,17,0.00,,,0.00,weatherlink.com 1.10,2013-02-23 22:56:00,
2013-02-23 17:11:00,70.6,22.0,29.85,SW,229,1.0,7.0,16,0.00,,,0.00,weatherlink.com 1.10,2013-02-23 23:11:00,
2013-02-23 17:26:00,69.8,21.0,29.85,WNW,298,4.0,7.0,16,0.00,,,0.00,weatherlink.com 1.10,2013-02-23 23:26:00,
2013-02-23 17:41:00,68.8,22.0,29.85,NW,304,3.0,7.0,17,0.00,,,0.00,weatherlink.com 1.10,2013-02-23 23:41:00,
2013-02-23 17:56:00,68.9,22.0,29.85,WNW,299,1.0,2.0,17,0.00,,,0.00,weatherlink.com 1.10,2013-02-23 23:56:00,
2013-02-23 18:11:00,65.5,22.0,29.86,North,4,0.0,2.0,19,0.00,,,0.00,weatherlink.com 1.10,2013-02-24 00:11:00,
2013-02-23 18:26:00,61.6,23.0,29.86,North,3,1.0,1.0,23,0.00,,,0.00,weatherlink.com 1.10,2013-02-24 00:26:00,
2013-02-23 18:41:00,57.2,24.0,29.86,North,3,0.0,-999.0,28,-99.99,,,0.00,weatherlink.com 1.10,2013-02-24 00:41:00,
2013-02-23 18:56:00,53.7,23.0,29.87,North,4,0.0,0.0,30,0.00,,,0.00,weatherlink.com 1.10,2013-02-24 00:56:00,
2013-02-23 19:11:00,51.0,25.0,29.88,North,3,0.0,0.0,37,0.00,,,0.00,weatherlink.com 1.10,2013-02-24 01:11:00,
2013-02-23 19:26:00,49.1,26.0,29.88,North,3,0.0,0.0,40,0.00,,,0.00,weatherlink.com 1.10,2013-02-24 01:26:00,
2013-02-23 19:41:00,47.3,24.0,29.89,North,3,0.0,0.0,41,0.00,,,0.00,weatherlink.com 1.10,2013-02-24 01:41:00,
2013-02-23 19:56:00,46.0,24.0,29.89,North,4,0.0,1.0,42,0.00,,,0.00,weatherlink.com 1.10,2013-02-24 01:56:00,
2013-02-23 20:11:00,44.8,25.0,29.89,North,3,0.0,0.0,47,0.00,,,0.00,weatherlink.com 1.10,2013-02-24 02:11:00,
2013-02-23 20:26:00,43.4,26.0,29.90,North,3,0.0,1.0,51,0.00,,,0.00,weatherlink.com 1.10,2013-02-24 02:26:00,
2013-02-23 20:42:00,41.9,25.0,29.90,NW,316,0.0,2.0,52,0.00,,,0.00,weatherlink.com 1.10,2013-02-24 02:42:00,
2013-02-23 20:56:00,41.4,26.0,29.91,NW,316,0.0,0.0,54,0.00,,,0.00,weatherlink.com 1.10,2013-02-24 02:56:00,
2013-02-23 21:11:00,40.5,24.0,29.91,NW,316,0.0,0.0,53,0.00,,,0.00,weatherlink.com 1.10,2013-02-24 03:11:00,
2013-02-23 21:26:00,40.1,25.0,29.91,NW,316,0.0,0.0,55,0.00,,,0.00,weatherlink.com 1.10,2013-02-24 03:26:00,
2013-02-23 21:41:00,39.5,26.0,29.91,NW,316,0.0,1.0,58,0.00,,,0.00,weatherlink.com 1.10,2013-02-24 03:41:00,
2013-02-23 21:56:00,38.9,25.0,29.91,NW,316,0.0,0.0,59,0.00,,,0.00,weatherlink.com 1.10,2013-02-24 03:56:00,
2013-02-23 22:11:00,38.9,26.0,29.92,NE,34,0.0,1.0,61,0.00,,,0.00,weatherlink.com 1.10,2013-02-24 04:11:00,
2013-02-23 22:26:00,40.1,29.0,29.92,NNE,15,0.0,1.0,65,0.00,,,0.00,weatherlink.com 1.10,2013-02-24 04:26:00,
2013-02-23 22:41:00,43.6,32.0,29.91,SSE,150,0.0,2.0,65,0.00,,,0.00,weatherlink.com 1.10,2013-02-24 04:41:00,
2013-02-23 22:56:00,45.9,33.0,29.91,South,187,0.0,3.0,62,0.00,,,0.00,weatherlink.com 1.10,2013-02-24 04:56:00,
2013-02-23 23:11:00,47.7,35.0,29.90,SSW,202,0.0,3.0,61,0.00,,,0.00,weatherlink.com 1.10,2013-02-24 05:11:00,
2013-02-23 23:26:00,48.8,35.0,29.90,SE,127,1.0,4.0,59,0.00,,,0.00,weatherlink.com 1.10,2013-02-24 05:26:00,
2013-02-23 23:41:00,49.4,36.0,29.90,SSW,208,1.0,5.0,60,0.00,,,0.00,weatherlink.com 1.10,2013-02-24 05:41:00,
2013-02-23 23:56:00,49.8,36.0,29.90,SW,218,4.0,7.0,59,0.00,,,0.00,weatherlink.com 1.10,2013-02-24 05:56:00,